User: anonymous   Login
Location: Taipo
(41.0000°S, 175.9500°E)
Time: 06:48:23
(UTC+00:00)
Language:

BREEZE-M DEB (TANK) - Orbit

View from above orbital plane
View from above orbital plane
View from above satellite
View from above satellite

Ground track
Ground track

The orbit data is extracted from the following two-line orbital elements,

1 35875U 09050C   24166.68669690  .00001151  00000-0  11941-2 0  9997
2 35875  49.3728 291.1831 5926207 319.3610   8.9173  4.05424525213872
Epoch (UTC): 14 June 2024 16:28:50
Eccentricity: 0.5926207
inclination: 49.3728°
perigee height: 390 km
apogee height: 20081 km
right ascension of ascending node: 291.1831°
argument of perigee: 319.3610°
revolutions per day: 4.05424525
mean anomaly at epoch: 8.9173°
orbit number at epoch: 21387

The dashed part of the orbit path shows where the satellite is in the earth's shadow,  

DLR